#timestamp,LO_Frequency,Hit,StdDev 
1634738415.7,286047008.5,N
1634738435.6,286047009.0,N
1634738455.4,286047006.2,N
1634738475.2,286047008.7,N
1634738495.1,286047006.5,N
1634738496.0,286047006.5,N
1634738515.8,286047008.8,N
1634738535.6,286047007.8,N
1634738555.5,286047006.1,N
1634738575.3,286047008.0,N
1634738595.1,286047010.6,N
1634738615.9,286047010.3,N
1634738635.7,286047010.8,N
1634738655.5,286047010.4,N
1634738675.4,286047007.7,N
1634738695.2,286047010.7,N
1634738715.0,286047009.9,Y
1634738715.9,286047009.9,P
1634738735.8,286047007.1,P
1634738755.6,286047006.5,P
1634738775.4,286047005.8,Y
1634738795.3,286046999.5,P
1634738815.1,286046998.1,N
1634738835.8,286046998.3,N
1634738855.7,286046999.1,N
1634738875.5,286046996.5,N
1634738895.3,286046998.6,N
1634738915.2,286046998.4,N
1634738935.9,286046998.8,N
1634738955.7,286047000.9,N
1634738975.6,286047001.0,N
1634738995.4,286046998.7,N
1634739015.2,286046999.6,N
1634739035.1,286047001.1,N
1634739036.0,286047001.1,N
1634739055.8,286047002.1,N
1634739075.6,286047002.5,N
1634739095.5,286047001.4,N
1634739115.3,286047000.2,N
1634739135.1,286047000.0,N
1634739155.9,286047000.0,N
1634739175.7,286047004.4,N
1634739195.5,286047003.2,N
1634739245.4,286047005.9,E
1634739255.3,286047001.7,N
1634739275.1,286046999.3,P
1634739295.9,286046996.5,N
1634739315.7,286046996.7,N
1634739335.5,286046999.3,N
1634739355.4,286047000.0,N
1634739375.2,286047002.4,N
1634739395.0,286047001.8,N
1634739395.9,286047001.8,N
1634739415.8,286047003.5,N
1634739435.6,286047001.6,N
1634739455.4,286047003.8,N
1634739475.3,286047000.5,N
1634739495.1,286047002.5,N
1634739515.8,286047000.0,N
1634739535.7,286047002.8,N
1634739555.5,286047000.7,N
1634739575.3,286047000.2,N
1634739595.2,286046998.9,N
1634739615.0,286047000.8,N
1634739615.9,286047000.8,N
1634739635.7,286047000.0,N
1634739655.6,286046999.9,N
1634739675.4,286047000.5,N
1634739695.2,286046998.5,N
1634739715.1,286047000.4,N
1634739716.0,286047000.4,N
1634739735.8,286047002.3,N
1634739755.6,286047001.5,N
1634739775.5,286047002.4,N
1634739795.3,286047000.0,N
1634739815.1,286047004.4,N
1634739835.9,286047003.7,N
1634739855.7,286047003.9,N
1634739875.5,286047005.9,Y
1634739895.4,286047001.3,P
1634739915.2,286047001.3,P
1634739935.0,286047002.0,P
1634739935.9,286047002.0,Y
1634739955.8,286047000.4,P
1634739975.6,286047001.8,P
1634739995.4,286047002.0,P
1634740015.3,286047002.8,Y
1634740035.1,286047000.7,P
1634740055.8,286046999.7,N
1634740075.7,286046998.6,N
1634740095.5,286047000.1,N
1634740115.3,286047002.0,N
1634740135.2,286046999.7,N
1634740155.0,286047002.8,N
1634740155.9,286047002.8,N
1634740175.7,286047002.3,N
1634740195.6,286047004.3,Y
1634740215.4,286047002.6,P
1634740235.2,286047001.6,N
1634740255.1,286047000.8,N
1634740256.0,286047000.8,N
1634740275.8,286047000.7,N
1634740295.6,286046999.8,N
1634740315.5,286047000.1,N
1634740335.3,286046998.6,N
1634740355.2,286046999.1,N
1634740375.9,286046998.7,N
1634740395.7,286047000.0,N
1634740415.6,286047001.0,N
1634740435.4,286047001.2,N
1634740455.2,286047001.2,N
1634740475.1,286046999.7,N
1634740476.0,286046999.7,N
1634740495.8,286047000.1,N
1634740515.6,286047000.0,N
1634740535.5,286047000.1,N
1634740555.3,286047000.2,N
1634740575.1,286047002.5,N
1634740595.9,286047000.5,N
1634740615.7,286047002.3,N
1634740635.5,286046999.8,N
1634740655.4,286046999.7,N
1634740675.2,286047000.5,N
1634740695.0,286047000.5,N
1634740695.9,286047000.5,N
1634740715.8,286047001.1,N
1634740735.6,286047001.0,N
1634740755.4,286046999.1,N
1634740775.3,286046999.3,N
1634740795.1,286047001.0,N
1634740796.0,286047001.0,N
1634740815.8,286047000.9,N
1634740835.7,286046999.9,N
1634740855.5,286046998.2,N
1634740875.3,286046998.4,N
1634740895.2,286046999.3,N
1634740915.9,286047000.8,N
1634740935.7,286046998.4,N
1634740955.6,286046998.1,N
1634740975.4,286047000.6,N
1634740995.2,286047001.7,N
1634741015.1,286047004.4,Y
1634741016.0,286047004.4,P
1634741035.8,286047002.3,N
1634741055.6,286047002.2,N
1634741075.5,286046999.9,N
1634741095.3,286047001.0,N
1634741115.1,286047000.0,N
1634741135.9,286047000.9,N
1634741155.7,286046998.6,N
1634741175.5,286046998.7,N
1634741195.4,286046998.8,N
1634741215.2,286047011.9,Y
1634741235.0,286046997.7,P
1634741235.9,286046997.7,N
1634741255.8,286046999.3,N
1634741275.6,286046998.3,N
1634741295.4,286046999.5,N
1634741315.3,286046998.6,N
1634741335.1,286046999.0,N
1634741336.0,286046999.0,N
1634741355.8,286046998.6,N
1634741375.7,286047000.6,N
1634741395.5,286046999.1,N
1634741415.3,286046999.1,N
1634741435.2,286046999.4,N
1634741455.9,286046996.6,Y
1634741475.7,286047000.4,P
1634741495.6,286047000.3,N
1634741515.4,286047002.8,P
1634741535.2,286047002.8,N
1634741555.1,286047001.1,N
1634741556.0,286047001.1,N
1634741575.8,286047000.9,N
1634741595.6,286047000.5,N
1634741615.5,286046998.6,N
1634741635.3,286047000.4,N
1634741655.1,286047002.8,N
1634741705.9,286046996.5,E
1634741715.8,286047001.1,N
1634741735.6,286047001.5,P
1634741755.5,286047003.2,P
1634741775.3,286047001.9,N
1634741795.1,286047003.9,Y
1634741815.9,286047001.1,P
1634741835.7,286047000.7,N
1634741855.5,286046998.5,N
1634741875.4,286047000.9,N
1634741895.2,286047002.2,N
1634741915.0,286047001.9,N
1634741915.9,286047001.9,N
1634741935.8,286047002.7,N
1634741955.6,286046999.8,N
1634741975.4,286046998.3,N
1634741995.3,286047001.2,N
